Year,Month,Day,Hour,Minute,Value (Times are PST for temperature in C)
2017,05,18,00,00,10.60
2017,05,18,00,01,10.60
2017,05,18,00,02,10.60
2017,05,18,00,03,10.60
2017,05,18,00,04,10.60
2017,05,18,00,06,10.60
2017,05,18,00,07,10.60
2017,05,18,00,09,10.60
2017,05,18,00,10,10.60
2017,05,18,00,11,10.60
2017,05,18,00,12,10.60
2017,05,18,00,13,10.60
2017,05,18,00,14,10.60
2017,05,18,00,15,10.60
2017,05,18,00,16,10.60
2017,05,18,00,17,10.60
2017,05,18,00,18,10.60
2017,05,18,00,19,10.60
2017,05,18,00,20,10.60
2017,05,18,00,21,10.60
2017,05,18,00,22,10.60
2017,05,18,00,23,10.60
2017,05,18,00,24,10.60
2017,05,18,00,25,10.60
2017,05,18,00,26,10.60
2017,05,18,00,27,10.60
2017,05,18,00,28,10.60
2017,05,18,00,29,10.60
2017,05,18,00,30,10.60
2017,05,18,00,31,10.60
2017,05,18,00,32,10.60
2017,05,18,00,33,10.60
2017,05,18,00,34,10.60
2017,05,18,00,35,10.60
2017,05,18,00,36,10.60
2017,05,18,00,37,10.60
2017,05,18,00,38,10.60
2017,05,18,00,39,10.60
2017,05,18,00,40,10.60
2017,05,18,00,41,10.60
2017,05,18,00,42,10.60
2017,05,18,00,43,10.60
2017,05,18,00,44,10.60
2017,05,18,00,45,10.60
2017,05,18,00,46,10.60
2017,05,18,00,47,10.60
2017,05,18,00,48,10.60
2017,05,18,00,49,10.60
2017,05,18,00,50,10.60
2017,05,18,00,51,10.60
2017,05,18,00,52,10.60
2017,05,18,00,53,10.60
2017,05,18,00,54,10.60
2017,05,18,00,55,10.60
2017,05,18,00,56,10.60
2017,05,18,00,57,10.60
2017,05,18,00,58,10.60
2017,05,18,00,59,10.60
2017,05,18,01,00,10.60
2017,05,18,01,01,10.60
2017,05,18,01,02,10.60
2017,05,18,01,03,10.60
2017,05,18,01,04,10.40
2017,05,18,01,05,10.40
2017,05,18,01,06,10.40
2017,05,18,01,07,10.40
2017,05,18,01,08,10.40
2017,05,18,01,09,10.40
2017,05,18,01,10,10.40
2017,05,18,01,11,10.40
2017,05,18,01,12,10.40
2017,05,18,01,13,10.40
2017,05,18,01,14,10.40
2017,05,18,01,15,10.40
2017,05,18,01,16,10.40
2017,05,18,01,18,10.30
2017,05,18,01,19,10.30
2017,05,18,01,21,10.30
2017,05,18,01,22,10.30
2017,05,18,01,23,10.20
2017,05,18,01,24,10.20
2017,05,18,01,26,10.20
2017,05,18,01,27,10.20
2017,05,18,01,28,10.10
2017,05,18,01,29,10.10
2017,05,18,01,31,10.10
2017,05,18,01,32,10.10
2017,05,18,01,33,10.10
2017,05,18,01,34,10.10
2017,05,18,01,36,10.10
2017,05,18,01,37,10.10
2017,05,18,01,38,9.90
2017,05,18,01,43,9.90
2017,05,18,01,44,9.90
2017,05,18,01,46,9.90
2017,05,18,01,47,9.90
2017,05,18,01,48,9.90
2017,05,18,01,49,9.80
2017,05,18,02,31,9.70
2017,05,18,02,32,9.70
2017,05,18,02,33,9.60
2017,05,18,02,34,9.60
2017,05,18,02,36,9.60
2017,05,18,02,37,9.60
2017,05,18,02,38,9.60
2017,05,18,02,39,9.50
2017,05,18,02,41,9.50
2017,05,18,02,42,9.50
2017,05,18,02,43,9.50
2017,05,18,02,44,9.50
2017,05,18,02,46,9.40
2017,05,18,02,47,9.40
2017,05,18,02,48,9.40
2017,05,18,02,49,9.40
2017,05,18,02,51,9.40
2017,05,18,02,52,9.40
2017,05,18,02,53,9.40
2017,05,18,02,54,9.40
2017,05,18,02,56,9.40
2017,05,18,02,57,9.30
2017,05,18,02,58,9.30
2017,05,18,02,59,9.30
2017,05,18,03,01,9.30
2017,05,18,03,02,9.30
2017,05,18,03,03,9.30
2017,05,18,03,04,9.30
2017,05,18,03,06,9.30
2017,05,18,03,07,9.30
2017,05,18,03,08,9.30
2017,05,18,03,09,9.30
2017,05,18,03,11,9.30
2017,05,18,03,12,9.30
2017,05,18,03,13,9.20
2017,05,18,03,14,9.20
2017,05,18,03,16,9.20
2017,05,18,03,17,9.20
2017,05,18,03,18,9.20
2017,05,18,03,19,9.20
2017,05,18,03,21,9.20
2017,05,18,03,22,9.20
2017,05,18,03,23,9.20
2017,05,18,03,24,9.20
2017,05,18,03,25,9.20
2017,05,18,03,26,9.20
2017,05,18,03,27,9.20
2017,05,18,03,28,9.20
2017,05,18,03,29,9.20
2017,05,18,03,30,9.20
2017,05,18,03,31,9.20
2017,05,18,03,32,9.20
2017,05,18,03,33,9.20
2017,05,18,03,34,9.20
2017,05,18,03,35,9.20
2017,05,18,03,36,9.20
2017,05,18,03,37,9.20
2017,05,18,03,38,9.20
2017,05,18,03,39,9.20
2017,05,18,03,40,9.20
2017,05,18,03,41,9.20
2017,05,18,03,42,9.20
2017,05,18,03,43,9.20
2017,05,18,03,44,9.20
2017,05,18,03,45,9.20
2017,05,18,03,46,9.20
2017,05,18,03,47,9.20
2017,05,18,03,48,9.20
2017,05,18,03,49,9.20
2017,05,18,03,50,9.20
2017,05,18,03,51,9.20
2017,05,18,03,52,9.20
2017,05,18,03,53,9.20
2017,05,18,03,54,9.20
2017,05,18,03,55,9.20
2017,05,18,03,56,9.20
2017,05,18,03,57,9.20
2017,05,18,03,58,9.20
2017,05,18,03,59,9.20
2017,05,18,04,00,9.20
2017,05,18,04,01,9.20
2017,05,18,04,02,9.20
2017,05,18,04,03,9.20
2017,05,18,04,04,9.20
2017,05,18,04,05,9.20
2017,05,18,04,06,9.20
2017,05,18,04,07,9.20
2017,05,18,04,08,9.20
2017,05,18,04,09,9.20
2017,05,18,04,10,9.20
2017,05,18,04,11,9.20
2017,05,18,04,12,9.20
2017,05,18,04,13,9.20
2017,05,18,04,14,9.20
2017,05,18,04,15,9.20
2017,05,18,04,16,9.20
2017,05,18,04,17,9.20
2017,05,18,04,18,9.20
2017,05,18,04,19,9.20
2017,05,18,04,20,9.20
2017,05,18,04,21,9.30
2017,05,18,04,22,9.30
2017,05,18,04,23,9.30
2017,05,18,04,24,9.30
2017,05,18,04,25,9.30
2017,05,18,04,26,9.30
2017,05,18,04,27,9.30
2017,05,18,04,29,9.30
2017,05,18,04,30,9.30
2017,05,18,04,32,9.30
2017,05,18,04,33,9.30
2017,05,18,04,34,9.30
2017,05,18,04,36,9.20
2017,05,18,04,37,9.20
2017,05,18,04,38,9.20
2017,05,18,04,39,9.20
2017,05,18,04,41,9.20
2017,05,18,04,42,9.20
2017,05,18,04,43,9.20
2017,05,18,04,44,9.20
2017,05,18,04,46,9.20
2017,05,18,04,47,9.20
2017,05,18,04,48,9.20
2017,05,18,04,49,9.20
2017,05,18,04,51,9.20
2017,05,18,04,52,9.20
2017,05,18,04,53,9.20
2017,05,18,04,54,9.20
2017,05,18,04,56,9.20
2017,05,18,04,57,9.20
2017,05,18,04,58,9.20
2017,05,18,04,59,9.20
2017,05,18,05,01,9.20
2017,05,18,05,02,9.20
2017,05,18,05,03,9.20
2017,05,18,05,04,9.20
2017,05,18,05,06,9.20
2017,05,18,05,07,9.20
2017,05,18,05,08,9.20
2017,05,18,05,09,9.20
2017,05,18,05,11,9.20
2017,05,18,05,12,9.20
2017,05,18,05,13,9.20
2017,05,18,05,14,9.20
2017,05,18,05,16,9.20
2017,05,18,05,17,9.20
2017,05,18,05,18,9.20
2017,05,18,05,19,9.20
2017,05,18,05,21,9.20
2017,05,18,05,22,9.20
2017,05,18,05,23,9.30
2017,05,18,05,24,9.30
2017,05,18,05,26,9.30
2017,05,18,05,27,9.30
2017,05,18,05,28,9.30
2017,05,18,05,29,9.30
2017,05,18,05,31,9.30
2017,05,18,05,32,9.30
2017,05,18,05,33,9.30
2017,05,18,05,34,9.30
2017,05,18,05,36,9.30
2017,05,18,05,37,9.30
2017,05,18,05,38,9.30
2017,05,18,05,39,9.30
2017,05,18,05,41,9.30
2017,05,18,05,42,9.30
2017,05,18,05,43,9.30
2017,05,18,05,44,9.30
2017,05,18,05,46,9.30
2017,05,18,05,47,9.30
2017,05,18,05,48,9.40
2017,05,18,05,49,9.40
2017,05,18,05,50,9.40
2017,05,18,05,51,9.40
2017,05,18,05,52,9.40
2017,05,18,05,53,9.40
2017,05,18,05,54,9.40
2017,05,18,05,55,9.40
2017,05,18,05,56,9.40
2017,05,18,05,57,9.40
2017,05,18,05,58,9.40
2017,05,18,05,59,9.40
2017,05,18,06,00,9.40
2017,05,18,06,01,9.40
2017,05,18,06,02,9.40
2017,05,18,06,03,9.40
2017,05,18,06,04,9.40
2017,05,18,06,06,9.40
2017,05,18,06,07,9.40
2017,05,18,06,08,9.40
2017,05,18,06,09,9.50
2017,05,18,06,10,9.50
2017,05,18,06,11,9.50
2017,05,18,06,12,9.50
2017,05,18,06,13,9.50
2017,05,18,06,14,9.50
2017,05,18,06,15,9.50
2017,05,18,06,16,9.60
2017,05,18,06,17,9.60
2017,05,18,06,18,9.60
2017,05,18,06,19,9.60
2017,05,18,06,20,9.60
2017,05,18,06,21,9.60
2017,05,18,06,22,9.60
2017,05,18,06,23,9.60
2017,05,18,06,24,9.60
2017,05,18,06,25,9.60
2017,05,18,06,26,9.60
2017,05,18,06,27,9.60
2017,05,18,06,28,9.60
2017,05,18,06,29,9.70
2017,05,18,06,30,9.70
2017,05,18,06,31,9.70
2017,05,18,06,32,9.70
2017,05,18,06,33,9.70
2017,05,18,06,34,9.70
2017,05,18,06,35,9.70
2017,05,18,06,36,9.70
2017,05,18,06,37,9.70
2017,05,18,06,38,9.70
2017,05,18,06,39,9.60
2017,05,18,06,40,9.60
2017,05,18,06,41,9.60
2017,05,18,06,42,9.60
2017,05,18,06,43,9.60
2017,05,18,06,44,9.60
2017,05,18,06,45,9.60
2017,05,18,06,46,9.60
2017,05,18,06,47,9.60
2017,05,18,06,48,9.60
2017,05,18,06,49,9.60
2017,05,18,06,50,9.50
2017,05,18,06,51,9.50
2017,05,18,06,52,9.50
2017,05,18,06,53,9.50
2017,05,18,06,54,9.50
2017,05,18,06,55,9.50
2017,05,18,06,56,9.50
2017,05,18,06,57,9.50
2017,05,18,06,58,9.50
2017,05,18,06,59,9.50
2017,05,18,07,00,9.50
2017,05,18,07,01,9.50
2017,05,18,07,02,9.50
2017,05,18,07,03,9.60
2017,05,18,07,04,9.60
2017,05,18,07,05,9.60
2017,05,18,07,06,9.60
2017,05,18,07,07,9.70
2017,05,18,07,08,9.70
2017,05,18,07,09,9.70
2017,05,18,07,10,9.70
2017,05,18,07,11,9.70
2017,05,18,07,12,9.70
2017,05,18,07,13,9.80
2017,05,18,07,14,9.80
2017,05,18,07,15,9.80
2017,05,18,07,16,9.90
2017,05,18,07,17,9.90
2017,05,18,07,19,9.90
2017,05,18,07,21,9.90
2017,05,18,07,22,10.10
2017,05,18,07,23,10.10
2017,05,18,07,24,10.10
2017,05,18,07,26,10.10
2017,05,18,07,27,10.10
2017,05,18,07,28,10.10
2017,05,18,07,29,10.10
2017,05,18,07,31,10.20
2017,05,18,07,32,10.20
2017,05,18,07,33,10.20
2017,05,18,07,34,10.20
2017,05,18,07,36,10.20
2017,05,18,07,37,10.20
2017,05,18,07,38,10.20
2017,05,18,07,39,10.20
2017,05,18,07,41,10.30
2017,05,18,07,42,10.30
2017,05,18,07,43,10.30
2017,05,18,07,44,10.30
2017,05,18,07,46,10.30
2017,05,18,07,47,10.30
2017,05,18,07,48,10.30
2017,05,18,07,49,10.30
2017,05,18,07,51,10.40
2017,05,18,07,52,10.40
2017,05,18,07,53,10.40
2017,05,18,07,54,10.40
2017,05,18,07,56,10.40
2017,05,18,07,57,10.40
2017,05,18,07,58,10.60
2017,05,18,07,59,10.60
2017,05,18,08,01,10.60
2017,05,18,08,02,10.60
2017,05,18,08,03,10.60
2017,05,18,08,04,10.70
2017,05,18,08,06,10.80
2017,05,18,08,07,10.80
2017,05,18,08,08,10.90
2017,05,18,08,09,10.90
2017,05,18,08,11,10.90
2017,05,18,08,12,11.10
2017,05,18,08,13,11.10
2017,05,18,08,14,11.10
2017,05,18,08,16,11.20
2017,05,18,08,17,11.20
2017,05,18,08,18,11.30
2017,05,18,08,19,11.30
2017,05,18,08,21,11.30
2017,05,18,08,22,11.30
2017,05,18,08,23,11.30
2017,05,18,08,24,11.40
2017,05,18,08,26,11.40
2017,05,18,08,27,11.40
2017,05,18,08,28,11.40
2017,05,18,08,29,11.40
2017,05,18,08,31,11.60
2017,05,18,08,32,11.60
2017,05,18,08,33,11.60
2017,05,18,08,34,11.70
2017,05,18,08,36,11.80
2017,05,18,08,37,11.80
2017,05,18,08,38,11.80
2017,05,18,08,39,11.80
2017,05,18,08,41,11.80
2017,05,18,08,42,11.90
2017,05,18,08,43,11.90
2017,05,18,08,44,11.90
2017,05,18,08,45,11.90
2017,05,18,08,46,11.90
2017,05,18,08,47,11.90
2017,05,18,08,48,12.00
2017,05,18,08,49,12.00
2017,05,18,08,50,12.10
2017,05,18,08,51,12.10
2017,05,18,08,52,12.10
2017,05,18,08,53,12.20
2017,05,18,08,54,12.20
2017,05,18,08,55,12.20
2017,05,18,08,56,12.20
2017,05,18,08,57,12.20
2017,05,18,08,58,12.30
2017,05,18,08,59,12.30
2017,05,18,09,00,12.30
2017,05,18,09,01,12.30
2017,05,18,09,02,12.30
2017,05,18,09,03,12.30
2017,05,18,09,04,12.30
2017,05,18,09,05,12.30
2017,05,18,09,06,12.30
2017,05,18,09,07,12.30
2017,05,18,09,08,12.40
2017,05,18,09,09,12.40
2017,05,18,09,10,12.30
2017,05,18,09,11,12.30
2017,05,18,09,12,12.30
2017,05,18,09,13,12.30
2017,05,18,09,14,12.30
2017,05,18,09,15,12.30
2017,05,18,09,16,12.30
2017,05,18,09,17,12.30
2017,05,18,09,18,12.30
2017,05,18,09,19,12.30
2017,05,18,09,20,12.30
2017,05,18,09,21,12.30
2017,05,18,09,22,12.30
2017,05,18,09,23,12.40
2017,05,18,09,24,12.40
2017,05,18,09,25,12.40
2017,05,18,09,26,12.40
2017,05,18,09,27,12.40
2017,05,18,09,28,12.40
2017,05,18,09,29,12.40
2017,05,18,09,30,12.40
2017,05,18,09,31,12.40
2017,05,18,09,32,12.40
2017,05,18,09,33,12.40
2017,05,18,09,34,12.40
2017,05,18,09,35,12.30
2017,05,18,09,36,12.30
2017,05,18,09,37,12.30
2017,05,18,09,38,12.30
2017,05,18,09,39,12.30
2017,05,18,09,40,12.30
2017,05,18,09,41,12.30
2017,05,18,09,42,12.30
2017,05,18,09,43,12.30
2017,05,18,09,44,12.30
2017,05,18,09,45,12.30
2017,05,18,09,46,12.30
2017,05,18,09,47,12.30
2017,05,18,09,48,12.30
2017,05,18,09,49,12.30
2017,05,18,09,50,12.30
2017,05,18,09,51,12.40
2017,05,18,09,52,12.40
2017,05,18,09,53,12.50
2017,05,18,09,54,12.50
2017,05,18,09,55,12.50
2017,05,18,09,56,12.50
2017,05,18,09,57,12.60
2017,05,18,09,59,12.70
2017,05,18,10,00,12.70
2017,05,18,10,02,12.80
2017,05,18,10,03,12.80
2017,05,18,10,04,12.80
2017,05,18,10,06,12.90
2017,05,18,10,07,13.00
2017,05,18,10,08,13.10
2017,05,18,10,09,13.10
2017,05,18,10,11,13.20
2017,05,18,10,12,13.30
2017,05,18,10,13,13.30
2017,05,18,10,14,13.30
2017,05,18,10,16,13.30
2017,05,18,10,17,13.30
2017,05,18,10,18,13.40
2017,05,18,10,19,13.50
2017,05,18,10,21,13.70
2017,05,18,10,22,13.70
2017,05,18,10,23,13.70
2017,05,18,10,24,13.70
2017,05,18,10,26,13.70
2017,05,18,10,27,13.80
2017,05,18,10,28,13.80
2017,05,18,10,29,13.90
2017,05,18,10,31,13.90
2017,05,18,10,32,13.90
2017,05,18,10,33,13.90
2017,05,18,10,34,13.90
2017,05,18,10,36,13.90
2017,05,18,10,37,13.90
2017,05,18,10,38,13.90
2017,05,18,10,39,13.90
2017,05,18,10,41,14.00
2017,05,18,10,42,14.00
2017,05,18,10,43,14.00
2017,05,18,10,44,14.00
2017,05,18,10,46,14.00
2017,05,18,10,47,14.00
2017,05,18,10,48,13.90
2017,05,18,10,49,13.90
2017,05,18,10,51,13.90
2017,05,18,10,52,13.90
2017,05,18,10,53,13.90
2017,05,18,10,54,14.00
2017,05,18,10,56,14.00
2017,05,18,10,57,14.10
2017,05,18,10,58,14.10
2017,05,18,10,59,14.20
2017,05,18,11,01,14.20
2017,05,18,11,02,14.10
2017,05,18,11,03,14.10
2017,05,18,11,04,14.10
2017,05,18,11,06,14.10
2017,05,18,11,07,14.10
2017,05,18,11,08,14.20
2017,05,18,11,09,14.20
2017,05,18,11,11,14.20
2017,05,18,11,12,14.20
2017,05,18,11,13,14.10
2017,05,18,11,14,14.10
2017,05,18,11,16,14.00
2017,05,18,11,17,13.90
2017,05,18,11,18,13.90
2017,05,18,11,19,13.90
2017,05,18,11,21,13.90
2017,05,18,11,22,13.90
2017,05,18,11,23,13.90
2017,05,18,11,24,13.90
2017,05,18,11,25,14.00
2017,05,18,11,26,14.00
2017,05,18,11,27,14.00
2017,05,18,11,28,14.10
2017,05,18,11,29,14.10
2017,05,18,11,31,14.20
2017,05,18,11,32,14.30
2017,05,18,11,33,14.40
2017,05,18,11,34,14.60
2017,05,18,11,36,14.80
2017,05,18,11,37,14.90
2017,05,18,11,38,15.00
2017,05,18,11,39,15.10
2017,05,18,11,40,15.20
2017,05,18,11,41,15.20
2017,05,18,11,42,15.20
2017,05,18,11,43,15.30
2017,05,18,11,44,15.30
2017,05,18,11,45,15.20
2017,05,18,11,46,15.20
2017,05,18,11,47,15.10
2017,05,18,11,48,15.10
2017,05,18,11,49,15.00
2017,05,18,11,50,14.90
2017,05,18,11,51,14.90
2017,05,18,11,52,14.90
2017,05,18,11,53,14.90
2017,05,18,11,54,14.90
2017,05,18,11,55,14.80
2017,05,18,11,56,14.80
2017,05,18,11,57,14.80
2017,05,18,11,58,14.80
2017,05,18,11,59,14.70
2017,05,18,12,00,14.60
2017,05,18,12,01,14.60
2017,05,18,12,02,14.50
2017,05,18,12,03,14.50
2017,05,18,12,04,14.40
2017,05,18,12,05,14.40
2017,05,18,12,06,14.30
2017,05,18,12,07,14.30
2017,05,18,12,08,14.30
2017,05,18,12,09,14.20
2017,05,18,12,10,14.20
2017,05,18,12,11,14.20
2017,05,18,12,12,14.20
2017,05,18,12,13,14.20
2017,05,18,12,14,14.20
2017,05,18,12,15,14.20
2017,05,18,12,16,14.20
2017,05,18,12,17,14.20
2017,05,18,12,18,14.20
2017,05,18,12,19,14.20
2017,05,18,12,20,14.20
2017,05,18,12,21,14.30
2017,05,18,12,22,14.20
2017,05,18,12,23,14.20
2017,05,18,12,24,14.20
2017,05,18,12,25,14.20
2017,05,18,12,26,14.20
2017,05,18,12,27,14.20
2017,05,18,12,28,14.20
2017,05,18,12,29,14.30
2017,05,18,12,30,14.30
2017,05,18,12,31,14.30
2017,05,18,12,32,14.40
2017,05,18,12,33,14.30
2017,05,18,12,34,14.30
2017,05,18,12,35,14.30
2017,05,18,12,36,14.30
2017,05,18,12,37,14.30
2017,05,18,12,38,14.30
2017,05,18,12,39,14.30
2017,05,18,12,40,14.30
2017,05,18,12,41,14.30
2017,05,18,12,42,14.30
2017,05,18,12,43,14.40
2017,05,18,12,44,14.40
2017,05,18,12,45,14.50
2017,05,18,12,46,14.50
2017,05,18,12,47,14.60
2017,05,18,12,48,14.60
2017,05,18,12,49,14.70
2017,05,18,12,50,14.70
2017,05,18,12,51,14.70
2017,05,18,12,53,14.80
2017,05,18,12,54,14.80
2017,05,18,12,55,14.80
2017,05,18,12,57,14.80
2017,05,18,12,58,14.80
2017,05,18,12,59,14.80
2017,05,18,13,01,14.90
2017,05,18,13,02,14.90
2017,05,18,13,03,14.90
2017,05,18,13,04,15.00
2017,05,18,13,06,15.10
2017,05,18,13,07,15.20
2017,05,18,13,08,15.20
2017,05,18,13,09,15.30
2017,05,18,13,11,15.40
2017,05,18,13,12,15.50
2017,05,18,13,13,15.50
2017,05,18,13,14,15.60
2017,05,18,13,16,15.70
2017,05,18,13,17,15.60
2017,05,18,13,18,15.60
2017,05,18,13,19,15.60
2017,05,18,13,21,15.60
2017,05,18,13,22,15.50
2017,05,18,13,23,15.50
2017,05,18,13,24,15.50
2017,05,18,13,26,15.60
2017,05,18,13,27,15.60
2017,05,18,13,28,15.60
2017,05,18,13,29,15.50
2017,05,18,13,31,15.40
2017,05,18,13,32,15.40
2017,05,18,13,33,15.30
2017,05,18,13,34,15.30
2017,05,18,13,36,15.30
2017,05,18,13,37,15.30
2017,05,18,13,38,15.30
2017,05,18,13,39,15.30
2017,05,18,13,41,15.30
2017,05,18,13,42,15.30
2017,05,18,13,43,15.20
2017,05,18,13,44,15.20
2017,05,18,13,46,15.10
2017,05,18,13,47,15.10
2017,05,18,13,48,15.10
2017,05,18,13,49,15.10
2017,05,18,13,51,15.10
2017,05,18,13,52,15.10
2017,05,18,13,53,15.00
2017,05,18,13,54,15.00
2017,05,18,13,56,14.90
2017,05,18,13,57,14.90
2017,05,18,13,58,14.80
2017,05,18,13,59,14.80
2017,05,18,14,01,14.80
2017,05,18,14,02,14.70
2017,05,18,14,03,14.70
2017,05,18,14,04,14.70
2017,05,18,14,06,14.60
2017,05,18,14,07,14.70
2017,05,18,14,08,14.70
2017,05,18,14,09,14.70
2017,05,18,14,11,14.80
2017,05,18,14,12,14.80
2017,05,18,14,13,14.80
2017,05,18,14,14,14.80
2017,05,18,14,15,14.90
2017,05,18,14,16,14.90
2017,05,18,14,17,14.80
2017,05,18,14,18,14.80
2017,05,18,14,19,14.90
2017,05,18,14,21,14.90
2017,05,18,14,22,14.90
2017,05,18,14,23,14.90
2017,05,18,14,24,14.80
2017,05,18,14,25,14.90
2017,05,18,14,26,14.80
2017,05,18,14,27,14.80
2017,05,18,14,28,14.80
2017,05,18,14,29,14.80
2017,05,18,14,30,14.80
2017,05,18,14,31,14.80
2017,05,18,14,32,14.80
2017,05,18,14,33,14.80
2017,05,18,14,34,14.80
2017,05,18,14,35,14.90
2017,05,18,14,36,15.00
2017,05,18,14,37,15.10
2017,05,18,14,38,15.10
2017,05,18,14,39,15.20
2017,05,18,14,40,15.20
2017,05,18,14,41,15.20
2017,05,18,14,42,15.30
2017,05,18,14,43,15.30
2017,05,18,14,44,15.40
2017,05,18,14,45,15.50
2017,05,18,14,46,15.60
2017,05,18,14,47,15.70
2017,05,18,14,48,15.80
2017,05,18,14,49,15.80
2017,05,18,14,50,16.10
2017,05,18,14,51,16.10
2017,05,18,14,52,16.10
2017,05,18,14,53,16.20
2017,05,18,14,54,16.30
2017,05,18,14,55,16.30
2017,05,18,14,56,16.30
2017,05,18,14,57,16.30
2017,05,18,14,58,16.40
2017,05,18,14,59,16.30
2017,05,18,15,00,16.30
2017,05,18,15,01,16.30
2017,05,18,15,02,16.30
2017,05,18,15,03,16.20
2017,05,18,15,04,16.20
2017,05,18,15,05,16.20
2017,05,18,15,06,16.10
2017,05,18,15,07,16.10
2017,05,18,15,08,16.10
2017,05,18,15,09,16.10
2017,05,18,15,10,16.10
2017,05,18,15,11,16.10
2017,05,18,15,12,16.10
2017,05,18,15,13,15.90
2017,05,18,15,14,15.80
2017,05,18,15,15,15.70
2017,05,18,15,16,15.60
2017,05,18,15,17,15.60
2017,05,18,15,18,15.50
2017,05,18,15,19,15.50
2017,05,18,15,20,15.40
2017,05,18,15,21,15.40
2017,05,18,15,22,15.40
2017,05,18,15,23,15.40
2017,05,18,15,24,15.40
2017,05,18,15,25,15.40
2017,05,18,15,26,15.50
2017,05,18,15,27,15.50
2017,05,18,15,28,15.60
2017,05,18,15,29,15.70
2017,05,18,15,30,15.70
2017,05,18,15,31,15.70
2017,05,18,15,32,15.70
2017,05,18,15,33,15.70
2017,05,18,15,34,15.70
2017,05,18,15,35,15.70
2017,05,18,15,36,15.60
2017,05,18,15,37,15.60
2017,05,18,15,39,15.50
2017,05,18,15,41,15.50
2017,05,18,15,42,15.50
2017,05,18,15,43,15.50
2017,05,18,15,44,15.50
2017,05,18,15,46,15.40
2017,05,18,15,47,15.40
2017,05,18,15,48,15.40
2017,05,18,15,49,15.40
2017,05,18,15,51,15.50
2017,05,18,15,52,15.50
2017,05,18,15,53,15.60
2017,05,18,15,54,15.60
2017,05,18,15,56,15.80
2017,05,18,15,57,15.80
2017,05,18,15,58,15.80
2017,05,18,15,59,15.80
2017,05,18,16,01,15.90
2017,05,18,16,02,15.90
2017,05,18,16,03,16.10
2017,05,18,16,04,16.10
2017,05,18,16,06,15.90
2017,05,18,16,07,15.80
2017,05,18,16,08,15.80
2017,05,18,16,09,15.80
2017,05,18,16,11,15.70
2017,05,18,16,12,15.70
2017,05,18,16,13,15.70
2017,05,18,16,14,15.80
2017,05,18,16,16,15.80
2017,05,18,16,17,15.70
2017,05,18,16,18,15.70
2017,05,18,16,19,15.60
2017,05,18,16,21,15.60
2017,05,18,16,22,15.60
2017,05,18,16,23,15.50
2017,05,18,16,24,15.50
2017,05,18,16,26,15.40
2017,05,18,16,27,15.40
2017,05,18,16,28,15.40
2017,05,18,16,29,15.40
2017,05,18,16,31,15.40
2017,05,18,16,32,15.40
2017,05,18,16,33,15.50
2017,05,18,16,34,15.50
2017,05,18,16,36,15.50
2017,05,18,16,37,15.50
2017,05,18,16,38,15.40
2017,05,18,16,39,15.40
2017,05,18,16,41,15.30
2017,05,18,16,42,15.30
2017,05,18,16,43,15.30
2017,05,18,16,44,15.30
2017,05,18,16,46,15.30
2017,05,18,16,47,15.30
2017,05,18,16,48,15.30
2017,05,18,16,49,15.40
2017,05,18,16,51,15.50
2017,05,18,16,52,15.50
2017,05,18,16,53,15.60
2017,05,18,16,54,15.60
2017,05,18,16,56,15.60
2017,05,18,16,57,15.60
2017,05,18,16,58,15.60
2017,05,18,16,59,15.60
2017,05,18,17,01,15.70
2017,05,18,17,02,15.70
2017,05,18,17,03,15.70
2017,05,18,17,04,15.70
2017,05,18,17,06,15.80
2017,05,18,17,07,15.80
2017,05,18,17,08,15.80
2017,05,18,17,09,15.70
2017,05,18,17,10,15.70
2017,05,18,17,11,15.70
2017,05,18,17,12,15.80
2017,05,18,17,13,15.80
2017,05,18,17,14,15.80
2017,05,18,17,15,15.80
2017,05,18,17,16,15.80
2017,05,18,17,17,15.80
2017,05,18,17,18,15.80
2017,05,18,17,19,15.80
2017,05,18,17,20,15.80
2017,05,18,17,21,15.80
2017,05,18,17,22,15.80
2017,05,18,17,23,15.80
2017,05,18,17,24,15.80
2017,05,18,17,25,15.80
2017,05,18,17,26,15.80
2017,05,18,17,27,15.80
2017,05,18,17,28,15.80
2017,05,18,17,29,15.80
2017,05,18,17,30,15.80
2017,05,18,17,31,15.80
2017,05,18,17,32,15.80
2017,05,18,17,33,15.80
2017,05,18,17,34,15.80
2017,05,18,17,35,15.80
2017,05,18,17,36,15.80
2017,05,18,17,37,15.80
2017,05,18,17,38,15.80
2017,05,18,17,39,15.80
2017,05,18,17,40,15.80
2017,05,18,17,41,15.80
2017,05,18,17,42,15.80
2017,05,18,17,43,15.70
2017,05,18,17,44,15.70
2017,05,18,17,45,15.70
2017,05,18,17,46,15.60
2017,05,18,17,47,15.60
2017,05,18,17,48,15.60
2017,05,18,17,49,15.70
2017,05,18,17,50,15.70
2017,05,18,17,51,15.80
2017,05,18,17,52,15.80
2017,05,18,17,53,15.90
2017,05,18,17,54,16.10
2017,05,18,17,55,16.20
2017,05,18,17,56,16.30
2017,05,18,17,57,16.40
2017,05,18,17,58,16.40
2017,05,18,17,59,16.40
2017,05,18,18,00,16.40
2017,05,18,18,01,16.60
2017,05,18,18,02,16.60
2017,05,18,18,03,16.60
2017,05,18,18,04,16.60
2017,05,18,18,05,16.60
2017,05,18,18,06,16.40
2017,05,18,18,07,16.40
2017,05,18,18,08,16.40
2017,05,18,18,09,16.40
2017,05,18,18,10,16.30
2017,05,18,18,11,16.30
2017,05,18,18,12,16.20
2017,05,18,18,13,16.10
2017,05,18,18,14,16.10
2017,05,18,18,15,16.10
2017,05,18,18,16,16.10
2017,05,18,18,17,16.10
2017,05,18,18,18,16.10
2017,05,18,18,19,16.10
2017,05,18,18,20,16.10
2017,05,18,18,21,16.10
2017,05,18,18,22,16.10
2017,05,18,18,23,16.10
2017,05,18,18,24,16.10
2017,05,18,18,26,16.10
2017,05,18,18,27,16.10
2017,05,18,18,28,16.10
2017,05,18,18,29,16.10
2017,05,18,18,31,16.20
2017,05,18,18,32,16.20
2017,05,18,18,33,16.10
2017,05,18,18,34,16.10
2017,05,18,18,36,15.90
2017,05,18,18,37,15.80
2017,05,18,18,38,15.80
2017,05,18,18,39,15.70
2017,05,18,18,41,15.50
2017,05,18,18,42,15.50
2017,05,18,18,43,15.50
2017,05,18,18,44,15.50
2017,05,18,18,46,15.50
2017,05,18,18,47,15.40
2017,05,18,18,48,15.40
2017,05,18,18,49,15.40
2017,05,18,18,51,15.40
2017,05,18,18,52,15.40
2017,05,18,18,53,15.40
2017,05,18,18,54,15.40
2017,05,18,18,56,15.40
2017,05,18,18,57,15.40
2017,05,18,18,58,15.40
2017,05,18,18,59,15.40
2017,05,18,19,01,15.40
2017,05,18,19,02,15.40
2017,05,18,19,03,15.50
2017,05,18,19,04,15.50
2017,05,18,19,06,15.50
2017,05,18,19,07,15.50
2017,05,18,19,08,15.40
2017,05,18,19,09,15.40
2017,05,18,19,11,15.40
2017,05,18,19,12,15.40
2017,05,18,19,13,15.40
2017,05,18,19,14,15.40
2017,05,18,19,16,15.30
2017,05,18,19,17,15.30
2017,05,18,19,18,15.30
2017,05,18,19,19,15.30
2017,05,18,19,21,15.30
2017,05,18,19,22,15.30
2017,05,18,19,23,15.30
2017,05,18,19,24,15.30
2017,05,18,19,26,15.20
2017,05,18,19,27,15.20
2017,05,18,19,28,15.20
2017,05,18,19,29,15.20
2017,05,18,19,31,15.10
2017,05,18,19,32,15.00
2017,05,18,19,33,15.00
2017,05,18,19,34,14.90
2017,05,18,19,36,14.90
2017,05,18,19,37,14.90
2017,05,18,19,38,14.80
2017,05,18,19,39,14.80
2017,05,18,19,41,14.70
2017,05,18,19,42,14.60
2017,05,18,19,43,14.50
2017,05,18,19,44,14.40
2017,05,18,19,45,14.30
2017,05,18,19,46,14.20
2017,05,18,19,47,14.10
2017,05,18,19,48,14.00
2017,05,18,19,49,13.90
2017,05,18,19,50,13.80
2017,05,18,19,51,13.70
2017,05,18,19,52,13.70
2017,05,18,19,53,13.60
2017,05,18,19,54,13.50
2017,05,18,19,55,13.50
2017,05,18,19,56,13.40
2017,05,18,19,57,13.30
2017,05,18,19,58,13.30
2017,05,18,19,59,13.30
2017,05,18,20,00,13.20
2017,05,18,20,01,13.20
2017,05,18,20,02,13.10
2017,05,18,20,03,13.10
2017,05,18,20,04,13.00
2017,05,18,20,05,13.00
2017,05,18,20,06,13.00
2017,05,18,20,07,13.00
2017,05,18,20,08,12.90
2017,05,18,20,09,12.90
2017,05,18,20,10,12.90
2017,05,18,20,11,12.90
2017,05,18,20,12,12.80
2017,05,18,20,13,12.80
2017,05,18,20,14,12.80
2017,05,18,20,15,12.80
2017,05,18,20,16,12.80
2017,05,18,20,17,12.80
2017,05,18,20,18,12.80
2017,05,18,20,19,12.80
2017,05,18,20,20,12.80
2017,05,18,20,21,12.80
2017,05,18,20,22,12.80
2017,05,18,20,23,12.80